Theta_e
306 304 304 304 304 304 307 308 309 311 310 312 311 311 311 312 312 310 308 313 305 300 304 305 306 309 309 309 304 308 305 308 306 298 297 308 307 310 308 309 308 306 305 304 307 303 301 320 318 312 320 327 325 324
305 305 304 304 304 304 306 308 309 310 310 312 312 313 313 312 312 311 304 313 313 304 303 309 311 316 315 317 314 314 311 310 308 302 304 312 308 312 311 304 314 307 314 309 313 311 321 323 323 325 328 325 323 322
305 305 305 304 304 304 305 307 308 309 310 311 312 312 312 312 313 312 309 311 305 302 304 308 308 317 322 321 322 313 317 315 313 315 311 314 311 314 308 309 312 314 318 313 314 315 320 320 324 325 326 324 324 323
305 305 305 305 305 305 305 307 308 309 310 310 312 312 312 312 312 314 311 312 305 306 298 305 316 312 321 323 324 323 321 317 316 317 313 313 313 316 316 315 314 316 318 316 313 317 319 320 323 324 323 322 321 320
305 305 305 305 305 305 305 307 308 310 311 310 312 312 312 314 313 314 314 315 316 307 296 299 307 313 318 320 319 320 319 313 311 312 311 313 318 317 319 318 313 318 316 313 310 319 321 321 323 321 319 318 318 318
304 304 304 305 305 305 305 307 308 310 311 310 312 312 311 313 311 311 305 314 316 314 304 300 311 312 315 318 317 316 314 313 313 314 316 318 316 316 315 311 317 320 322 323 320 324 325 324 321 320 318 318 319 320
304 304 304 304 305 305 304 307 308 310 310 311 312 311 310 311 313 306 305 312 310 314 305 302 305 311 313 314 316 313 315 316 313 316 314 316 315 316 311 308 318 321 321 323 322 324 319 318 315 318 319 319 318 321
304 304 304 305 305 305 304 306 308 309 311 311 311 311 311 310 309 307 314 310 314 310 307 300 304 307 313 307 307 315 313 313 314 315 317 315 314 315 308 315 320 320 320 319 321 322 321 319 319 319 320 320 319 318
304 304 304 304 304 305 304 306 307 309 310 311 310 310 311 308 307 309 313 312 316 310 303 304 301 303 313 310 312 312 313 307 316 311 311 313 309 306 314 318 319 318 317 317 319 320 319 317 317 318 319 319 317 318
304 304 304 304 304 304 304 306 307 309 310 310 310 304 300 310 311 313 312 308 307 308 307 302 307 305 311 311 309 310 311 309 305 311 313 309 306 315 316 321 324 321 320 319 316 315 316 315 316 317 315 316 316 317
304 304 304 304 304 304 304 306 307 309 309 310 303 301 311 312 311 306 300 301 305 299 303 306 306 304 313 308 309 313 308 309 302 308 308 306 306 313 317 319 324 323 321 321 322 321 320 319 316 314 314 315 316 316
304 303 303 304 304 304 303 306 307 307 309 308 308 311 311 306 302 297 296 301 299 298 303 302 306 307 311 315 311 311 306 307 299 313 306 302 308 315 318 320 323 323 321 321 322 320 320 318 317 316 316 316 317 318
303 303 303 304 304 304 303 306 307 307 308 311 304 300 301 300 291 292 291 295 297 301 303 303 303 307 311 313 310 308 302 303 311 305 303 307 315 317 320 321 321 321 321 321 321 321 320 318 318 318 318 319 319 319
303 303 303 304 304 303 304 306 308 308 305 298 294 289 294 291 295 296 298 302 303 302 303 302 305 306 312 306 309 300 307 308 301 299 301 310 315 317 321 321 320 319 321 320 320 320 318 317 317 319 320 321 320 319
302 302 303 304 304 302 304 305 305 305 301 296 295 289 292 299 301 301 304 304 305 306 304 301 304 308 307 303 307 304 300 297 301 303 310 314 319 321 320 321 320 320 320 320 320 318 317 319 319 320 322 323 321 320
302 302 303 304 304 302 304 304 303 302 298 295 293 291 296 296 297 300 302 301 307 305 307 306 302 300 300 304 299 298 297 297 303 309 314 318 320 322 322 321 321 321 320 319 318 319 319 320 320 321 322 321 320 318
302 300 303 303 303 302 304 303 300 296 295 291 290 296 296 296 297 301 303 305 309 304 299 304 296 296 305 300 298 304 301 306 310 313 316 321 320 323 323 322 321 320 319 318 319 320 320 322 322 320 317 318 318 317
301 303 303 303 303 303 301 304 299 295 290 292 291 297 298 300 300 304 308 308 305 303 304 301 305 299 298 296 300 306 309 313 316 316 318 321 322 324 324 322 321 321 320 320 320 320 320 319 317 316 318 317 316 316
299 302 303 303 303 301 294 297 300 291 293 297 298 298 299 298 301 303 304 307 307 308 305 304 299 299 301 307 307 309 312 312 311 317 318 320 323 323 324 323 321 322 321 320 319 318 319 319 318 317 316 315 313 313
302 303 302 303 303 298 292 294 300 294 291 296 297 296 299 299 302 304 307 307 306 305 302 300 300 304 308 310 314 313 314 316 315 316 317 315 320 321 321 321 320 321 320 319 319 311 317 316 317 316 315 313 313 311
301 302 302 303 300 300 297 295 293 293 295 294 298 297 296 298 297 298 301 306 306 303 301 305 306 308 312 313 316 317 316 317 316 318 319 312 316 318 318 319 319 320 318 317 315 313 310 315 315 315 314 314 314 313
302 302 300 301 296 296 295 297 294 296 294 295 297 298 296 295 295 298 304 302 302 305 307 307 308 310 310 312 314 318 318 321 321 316 307 309 313 313 312 314 314 314 315 315 317 314 315 314 314 314 313 313 310 313
301 301 299 296 290 289 290 299 292 293 290 294 297 293 295 296 299 303 301 303 304 309 311 312 313 317 316 317 319 320 322 321 319 319 316 316 316 317 315 315 314 311 309 313 317 315 314 305 308 312 313 312 312 312
300 294 292 291 291 287 292 290 294 293 294 292 292 291 293 297 303 300 296 302 307 312 313 314 313 313 316 318 317 319 320 322 320 318 319 317 315 314 315 316 316 315 315 312 314 313 313 312 305 311 311 310 310 310
288 289 289 286 291 288 287 289 289 289 288 291 291 292 295 301 296 295 296 302 309 310 311 313 314 316 312 315 318 320 319 320 318 317 318 319 318 316 316 315 313 315 318 314 313 312 312 311 311 311 310 310 310 310
284 290 286 288 288 287 287 286 288 288 291 290 292 297 299 297 294 293 299 304 307 310 310 312 314 315 316 317 315 317 318 321 321 317 317 319 319 317 315 313 311 312 316 316 314 312 312 311 311 310 310 308 296 309
284 287 290 293 292 291 290 291 291 292 290 290 293 292 294 292 292 299 306 309 310 312 315 317 318 315 317 318 317 318 319 319 319 320 320 319 319 320 318 315 313 316 317 317 316 314 312 312 311 311 311 311 312 311
287 288 286 289 289 292 290 289 286 289 292 296 296 293 293 294 297 306 309 312 314 317 317 316 316 317 317 316 316 317 317 319 320 320 319 319 320 320 321 321 322 299 317 318 316 315 313 313 313 313 312 312 312 313
288 289 289 288 290 292 293 293 295 299 302 301 297 297 299 305 309 309 310 312 313 310 310 311 313 316 315 317 319 319 319 319 317 314 314 314 315 316 319 320 318 318 317 314 295 304 313 313 314 315 314 313 314 314
292 296 291 292 290 290 295 299 300 303 304 306 306 304 304 306 308 310 310 310 309 309 311 312 313 314 315 316 316 317 320 321 321 316 313 313 316 320 320 319 318 319 318 316 313 307 291 307 303 312 309 311 313 313
298 298 295 294 292 296 299 301 303 304 303 303 305 303 302 304 307 311 311 312 312 312 312 313 315 318 317 315 314 314 313 318 317 316 317 317 318 320 321 321 321 321 321 320 318 317 316 315 313 312 310 311 310 306
298 297 296 294 296 301 303 301 301 300 301 301 301 303 305 304 302 307 312 314 312 311 300 310 313 314 317 317 317 316 298 317 317 316 316 317 317 319 320 320 320 320 320 319 318 316 315 313 310 310 309 309 310 311
298 298 298 298 297 297 300 300 299 298 299 299 300 301 301 301 300 307 310 311 311 311 311 313 314 317 317 317 316 314 308 318 303 287 290 291 294 304 316 318 319 318 317 314 313 314 314 313 311 310 310 311 312 312
Wind_Speed
11 10 11 11 12 14 16 17 17 15 9 9 8 10 9 11 12 4 2 5 3 4 12 14 15 15 9 7 9 7 9 5 3 3 3 8 5 4 6 9 17 14 13 10 9 8 7 14 11 6 6 14 14 14
10 10 10 10 12 13 15 16 15 14 11 8 8 8 7 11 10 7 4 3 5 6 8 9 14 20 17 11 5 6 7 8 2 4 10 6 6 4 11 9 2 10 4 8 5 4 8 14 8 9 10 14 12 13
11 10 10 9 12 12 14 14 15 14 12 6 4 6 7 5 7 11 4 2 1 4 6 4 6 3 6 11 9 5 3 4 4 3 4 7 6 4 7 8 8 5 2 5 9 6 15 9 10 9 14 14 15 15
10 10 10 10 12 12 13 15 15 14 11 8 6 8 6 8 9 7 4 2 2 6 3 3 4 7 3 6 8 3 6 5 5 4 7 9 4 4 2 4 4 3 10 10 10 11 12 8 11 14 15 16 17 16
9 9 10 10 11 12 13 15 15 11 10 8 7 6 4 6 7 5 6 4 7 7 5 6 7 4 4 3 2 5 7 7 1 5 8 7 2 4 2 1 6 7 8 5 7 19 3 18 16 17 18 18 18 18
9 9 9 10 10 11 13 14 14 13 6 7 8 7 6 3 3 2 3 4 4 3 6 4 3 3 3 3 8 8 6 1 4 5 5 3 2 4 2 3 5 5 5 6 9 14 14 20 19 18 18 19 17 16
10 10 9 9 11 11 12 13 13 12 7 7 7 7 6 2 3 5 4 3 3 5 5 5 3 5 5 3 3 3 5 5 4 5 4 6 2 4 2 4 7 7 7 14 19 21 19 20 20 19 18 18 14 15
9 10 8 9 10 10 11 13 12 12 8 7 7 5 6 8 10 7 3 3 4 5 4 5 2 5 6 5 5 6 6 7 6 1 3 2 4 4 6 5 8 8 13 16 16 8 20 21 20 19 18 17 16 15
9 9 8 9 9 9 11 12 11 11 5 7 6 0 4 5 4 1 2 6 6 6 4 4 4 2 6 4 3 5 4 3 0 2 2 5 4 3 9 15 14 15 10 17 10 19 22 23 21 19 19 18 17 15
9 8 8 8 8 8 9 11 10 7 8 8 2 1 2 2 6 8 5 4 7 5 5 5 3 4 3 2 3 3 2 1 3 2 1 4 4 5 5 8 11 14 14 18 21 19 22 21 20 21 19 16 15 15
8 8 8 8 7 7 8 10 9 3 7 3 3 3 3 1 4 3 2 4 3 5 6 6 9 6 3 4 2 2 0 1 4 5 5 5 5 8 9 8 12 13 17 16 12 17 20 22 21 20 18 17 15 15
9 8 7 8 6 7 8 7 8 2 2 2 1 1 3 3 3 5 6 4 6 4 3 5 5 6 2 3 3 3 3 4 3 2 5 4 6 4 11 11 15 14 18 14 14 19 19 21 20 19 17 16 15 14
9 8 8 7 7 6 7 7 8 6 2 1 2 2 3 3 4 6 8 5 4 3 2 3 6 5 4 5 4 4 6 3 1 4 3 4 6 6 9 12 14 14 16 15 18 19 21 21 20 18 16 15 14 13
9 8 8 8 7 6 6 5 5 6 2 3 4 4 5 4 6 5 6 1 4 2 3 4 4 5 2 4 2 4 2 3 4 5 5 3 4 9 12 13 16 18 18 18 20 21 21 20 18 16 14 13 12 12
9 8 8 9 8 6 4 0 2 1 1 3 3 5 6 6 2 4 4 4 3 3 3 4 4 3 3 3 3 2 4 4 4 2 2 6 2 9 12 14 16 16 16 17 19 19 20 18 16 14 13 12 11 11
9 7 8 7 9 7 5 2 1 0 0 2 3 3 5 4 5 6 6 5 4 4 2 3 3 4 4 1 4 5 4 5 4 5 5 4 4 9 12 14 15 16 17 18 17 18 17 16 15 14 13 12 11 11
9 5 9 11 9 5 4 3 2 2 2 2 4 5 5 3 5 4 3 2 1 5 5 2 4 4 3 4 4 3 4 6 5 5 5 5 3 9 11 13 15 16 17 18 18 17 16 14 15 14 14 12 11 10
6 6 11 11 10 6 0 3 3 3 4 5 4 3 6 4 4 3 2 2 4 3 3 2 2 6 3 2 3 3 3 2 3 4 4 5 3 8 11 14 15 16 17 17 17 16 15 16 14 11 13 12 11 10
7 8 15 15 7 3 2 3 3 3 6 5 5 5 4 4 4 7 6 4 4 4 5 4 5 6 6 3 3 3 3 4 5 4 4 3 4 8 11 12 14 15 16 16 15 12 12 14 11 10 10 10 8 8
11 13 16 13 6 4 4 3 3 4 4 3 5 7 6 6 4 6 5 5 6 5 6 6 9 5 1 3 3 3 4 4 4 3 1 1 4 9 12 11 11 13 11 13 11 11 12 10 9 9 9 9 9 9
10 8 9 6 4 3 2 2 4 3 3 4 4 6 6 7 10 10 9 7 7 6 9 9 9 8 9 4 3 3 4 5 5 4 2 4 6 7 10 9 9 9 10 9 12 12 11 9 9 9 9 9 8 9
7 10 4 4 4 5 4 6 3 3 4 4 5 6 6 7 10 10 8 9 9 8 9 9 8 8 9 10 7 7 5 5 3 2 5 9 8 9 10 8 10 9 6 7 10 11 10 9 9 9 9 9 8 9
10 4 3 5 5 5 5 5 6 5 5 4 5 6 6 7 6 8 7 9 9 8 9 8 7 6 7 4 5 5 6 6 4 4 7 6 7 7 9 9 10 14 7 1 7 8 9 11 9 10 10 10 9 9
3 6 6 6 8 4 5 6 5 4 4 5 5 9 9 7 4 7 11 8 7 7 8 10 8 7 5 6 5 5 5 4 5 6 5 6 8 9 9 7 8 8 10 10 3 6 10 10 11 10 11 10 10 10
4 5 4 6 6 6 7 7 6 5 7 10 14 9 6 5 7 8 10 7 7 7 8 8 8 7 6 4 4 5 4 4 5 6 5 6 8 8 8 7 5 7 12 12 9 11 11 12 11 11 12 11 12 13
7 8 8 9 5 6 9 7 10 11 8 8 9 5 5 6 8 6 10 8 7 8 8 8 8 7 6 7 8 7 6 3 3 4 5 5 8 10 11 12 10 7 9 11 12 13 14 13 13 14 12 12 8 10
6 7 5 3 3 4 4 4 2 6 9 8 4 2 5 7 9 5 5 5 7 5 4 4 4 5 6 5 2 4 5 4 4 2 5 6 5 6 8 10 13 10 12 11 13 14 15 14 14 14 12 11 12 12
6 4 7 6 5 5 4 6 7 10 8 5 7 10 5 5 3 3 3 5 6 7 7 6 5 5 4 3 3 5 4 3 3 5 6 6 5 4 6 7 6 10 9 11 12 11 10 12 12 13 13 12 11 12
5 4 4 5 3 6 4 3 2 2 3 10 7 4 3 3 3 4 6 7 3 5 4 5 2 3 4 4 4 4 5 7 9 12 12 8 8 6 7 7 8 9 9 8 6 5 7 7 10 9 9 8 10 10
3 5 2 4 4 4 2 3 3 2 1 3 3 4 5 6 5 5 7 6 4 7 7 6 5 6 7 8 8 7 3 2 2 1 3 4 4 8 8 8 9 9 10 11 10 7 6 6 4 4 1 5 7 6
5 3 2 4 2 2 3 4 4 1 4 4 3 7 8 7 5 5 4 4 6 7 8 9 8 6 6 6 6 7 6 3 3 4 2 5 6 6 6 7 8 8 9 10 10 9 10 12 9 9 7 7 7 5
5 6 6 8 7 6 8 7 6 7 6 6 5 5 7 9 9 4 3 2 7 7 3 5 8 7 6 6 5 4 3 7 5 5 5 4 5 5 6 6 7 7 8 9 9 10 12 10 7 8 7 5 6 7
1 2 3 3 4 4 5 4 4 6 8 8 6 6 5 5 5 4 1 3 3 4 5 5 6 6 7 7 8 6 4 6 6 6 6 7 7 3 5 6 6 7 9 8 8 11 15 17 15 16 16 16 17 18
Wind_Direction
279 287 292 303 309 314 318 323 325 326 311 303 225 231 231 189 192 180 235 174 221 255 274 261 266 265 250 226 236 172 181 168 120 102 273 234 265 184 159 151 172 175 192 193 187 194 172 160 148 219 82 130 145 145
277 279 287 300 305 312 316 321 323 325 315 336 225 226 191 184 194 185 263 184 216 244 280 317 280 276 276 286 287 225 324 109 121 117 245 286 235 201 163 145 357 174 268 135 335 78 121 137 100 117 131 136 137 134
276 280 288 298 300 308 313 318 322 318 305 310 208 187 182 187 192 196 255 273 226 250 257 256 283 319 265 244 249 271 117 60 66 94 290 293 269 274 192 129 127 126 189 107 169 115 139 116 120 129 133 131 131 129
268 279 287 295 300 308 311 314 317 310 294 266 236 216 227 254 251 230 243 156 250 270 271 251 235 264 243 195 219 248 123 131 103 252 252 271 275 280 40 93 142 59 162 125 91 127 141 141 141 134 128 130 128 129
264 278 284 290 300 307 308 315 317 304 285 249 231 201 217 234 248 259 258 228 237 303 311 286 292 189 179 177 184 176 72 71 315 234 228 237 250 228 108 226 140 197 146 180 148 159 205 154 147 144 140 140 137 135
263 271 281 290 296 304 307 317 319 319 255 239 233 209 227 323 292 266 256 165 194 296 272 273 108 144 120 61 32 14 36 219 231 272 240 207 197 278 208 90 94 114 129 29 123 141 125 137 144 149 143 142 143 140
261 270 278 289 290 299 310 317 323 330 251 242 228 215 238 283 276 245 306 31 324 295 256 284 195 120 100 75 60 356 274 264 231 300 3 354 358 272 53 20 135 125 89 110 121 120 125 148 148 146 143 140 142 137
255 267 276 280 285 298 311 318 328 332 243 231 227 208 246 271 271 266 186 142 195 257 265 283 293 159 168 177 197 183 228 205 201 237 218 182 308 261 105 208 147 127 127 137 141 130 140 141 143 144 143 147 145 147
252 264 274 275 284 296 307 318 331 331 215 179 158 305 248 224 235 192 63 279 224 276 290 263 286 83 176 191 203 198 243 251 315 262 215 235 181 210 123 157 164 157 157 154 131 132 142 148 145 147 150 151 148 147
241 256 270 274 281 290 304 320 328 330 165 156 100 321 238 200 353 283 181 220 196 176 228 257 298 264 287 214 170 245 217 267 223 121 269 256 254 60 115 167 164 170 152 153 139 146 153 150 151 154 155 152 147 148
235 251 272 279 279 290 304 320 326 207 166 195 176 239 1 132 235 206 253 246 190 219 191 235 236 268 141 267 206 274 54 224 239 125 265 200 237 198 166 173 169 175 167 167 164 156 156 152 152 152 151 146 145 148
233 247 267 274 282 283 299 314 324 295 261 180 262 281 303 241 210 194 221 200 225 255 154 221 195 220 163 256 218 216 230 209 225 116 230 221 217 161 177 166 161 169 168 162 155 154 152 153 153 150 149 147 150 148
233 241 262 278 268 273 299 304 299 254 210 349 342 274 227 189 210 219 199 196 224 171 185 223 187 207 173 227 225 208 220 202 153 209 224 242 94 187 174 155 155 160 161 155 150 151 152 153 151 152 150 150 151 151
235 245 263 267 256 258 297 316 314 176 140 166 196 211 230 202 232 204 238 213 78 272 304 222 191 218 215 194 228 235 122 229 223 223 207 118 140 176 165 158 155 159 159 151 152 155 153 152 149 151 151 151 154 159
238 250 260 254 233 231 269 43 19 60 197 179 210 219 225 243 240 277 307 289 219 265 297 196 235 211 194 198 210 238 198 218 241 265 63 37 116 156 159 159 159 154 152 150 155 153 150 146 148 149 150 155 158 153
239 259 229 187 193 203 201 166 353 162 103 186 229 252 251 272 248 243 242 248 236 248 203 228 241 204 203 217 211 204 204 222 96 41 20 36 155 166 161 166 160 155 152 151 153 150 146 151 152 148 148 149 150 157
225 237 168 175 174 184 190 227 192 184 225 200 247 234 260 294 278 306 313 284 248 233 204 177 233 190 117 220 221 206 223 54 31 16 9 14 180 174 170 163 160 155 152 154 152 150 151 146 141 147 145 148 148 152
222 174 170 162 164 126 204 234 227 221 228 228 237 222 224 247 271 282 215 248 261 238 228 197 346 227 230 234 227 179 214 86 5 354 349 5 200 184 175 169 162 157 156 153 151 145 145 146 150 145 143 146 144 141
178 181 166 166 192 157 139 209 248 244 231 247 227 237 252 261 251 268 274 243 263 299 290 223 228 231 225 224 343 70 48 7 345 6 1 337 194 172 169 167 165 161 155 150 146 152 151 159 149 145 148 158 156 158
154 155 160 176 215 183 169 163 271 254 243 227 232 240 230 244 218 232 232 214 203 221 219 231 238 258 269 323 352 42 6 328 303 281 129 139 160 166 165 166 161 149 139 141 144 141 145 143 148 153 158 164 158 160
137 136 146 189 204 261 290 149 211 238 260 252 241 226 242 241 239 232 238 231 216 227 228 236 247 254 269 281 293 302 293 281 307 294 335 159 168 152 147 138 136 140 146 150 158 150 160 152 148 152 153 161 165 162
114 168 146 192 234 194 247 180 261 306 216 238 233 214 238 225 232 227 223 218 232 232 234 244 237 240 243 240 239 225 276 241 223 113 104 126 160 152 151 150 135 125 139 171 170 160 150 144 150 149 161 158 164 165
142 180 182 172 206 210 248 182 200 213 239 217 206 217 217 217 214 196 210 226 229 230 237 228 229 228 245 234 223 213 221 209 200 167 144 158 155 148 148 161 159 132 110 235 170 151 143 133 147 153 147 160 163 158
224 190 203 205 199 212 202 192 213 217 219 240 237 228 220 202 188 215 221 208 222 210 203 206 205 206 202 209 212 196 181 210 147 148 145 147 147 152 160 158 167 147 143 138 182 153 147 156 147 159 158 164 171 168
163 205 215 206 195 205 213 191 186 209 232 219 227 230 187 188 213 214 216 204 203 213 195 190 197 204 223 186 173 139 144 204 166 157 166 172 147 145 143 146 138 158 155 147 178 171 165 158 168 164 168 169 173 175
220 204 207 195 187 205 194 193 198 202 219 225 224 215 188 204 204 216 194 207 196 193 185 193 184 191 179 164 142 128 139 188 139 140 160 183 182 167 156 154 157 170 183 173 171 169 169 171 173 175 180 176 180 197
234 226 201 221 228 185 216 193 159 196 204 205 206 126 221 207 203 175 167 183 181 158 153 150 159 169 145 141 95 45 61 81 66 353 148 164 182 190 177 173 178 177 176 179 177 177 174 174 178 184 187 188 186 205
234 236 208 179 204 222 250 181 173 197 197 182 182 204 207 188 129 134 125 139 140 128 135 119 93 74 78 128 132 125 144 144 136 136 123 133 150 162 184 194 161 139 170 176 181 174 170 184 187 186 191 190 189 189
224 224 214 198 213 215 237 280 323 124 153 186 160 150 117 57 41 117 129 123 91 67 90 111 68 72 101 121 128 159 168 178 180 181 178 149 154 163 177 161 153 162 154 140 106 146 154 167 202 194 202 210 201 196
252 159 223 166 182 205 211 264 1 71 95 44 76 112 116 100 80 107 124 104 119 169 199 207 187 178 174 168 159 152 140 98 345 182 167 153 132 135 163 162 170 164 160 153 143 126 89 96 99 113 276 233 229 226
321 302 103 129 101 349 352 357 11 68 79 61 27 104 100 114 95 77 93 153 164 166 175 179 173 165 159 147 142 144 139 141 106 76 87 119 125 140 156 163 172 167 171 168 171 186 189 190 180 162 175 223 221 217
348 358 354 26 45 83 146 124 110 106 136 137 98 94 115 103 91 87 84 166 150 128 116 130 124 111 107 108 101 82 107 128 136 128 129 113 114 141 156 156 153 160 178 182 183 180 176 174 155 151 162 202 250 244
124 37 29 15 18 30 24 54 61 82 74 77 72 69 58 56 72 80 69 353 14 103 113 105 107 119 114 112 108 106 99 87 65 44 43 43 49 73 150 142 137 152 142 140 154 167 177 174 170 178 189 199 216 224